#timestamp,LO_Frequency,Hit,StdDev 
1459375215.3,286046991.3,P
1459375235.1,286046992.7,Y
1459375255.9,286047001.6,P
1459375275.7,286046999.0,N
1459375295.5,286047001.2,N
1459375315.3,286046996.8,N
1459375335.2,286046996.7,N
1459375355.0,286046995.0,N
1459375355.9,286046995.0,N
1459375375.7,286046996.6,N
1459375395.6,286046999.6,N
1459375415.4,286046998.4,N
1459375435.2,286046997.2,N
1459375455.1,286046997.4,N
1459375456.0,286046997.4,N
1459375475.8,286046999.3,N
1459375495.6,286047000.0,N
1459375515.5,286047001.4,N
1459375535.3,286047004.2,N
1459375555.1,286047003.3,N
1459375575.9,286047004.3,N
1459375595.7,286047000.4,N
1459375615.5,286047001.2,N
1459375635.4,286046997.0,N
1459375655.2,286046995.4,N
1459375675.0,286046994.2,N
1459375675.9,286046994.2,N
1459375695.7,286046993.8,N
1459375715.6,286046994.0,N
1459375735.4,286046996.0,N
1459375755.2,286046994.1,N
1459375775.1,286046993.8,N
1459375776.0,286046993.8,N
1459375795.8,286046996.2,N
1459375815.6,286046996.1,N
1459375835.5,286046997.9,N
1459375855.3,286046993.7,N
1459375875.1,286046992.6,N
1459375895.9,286046991.8,N
1459375915.7,286046992.3,N
1459375935.5,286046991.2,N
1459375955.4,286046990.5,N
1459375975.2,286046991.1,N
1459375995.0,286046989.2,N
1459375995.9,286046989.2,N
1459376015.8,286046991.3,N
1459376035.6,286046990.7,N
1459376055.4,286046991.2,N
1459376075.2,286046990.0,N
1459376095.1,286046990.6,N
1459376096.0,286046990.6,N
1459376115.8,286046988.7,Y
1459376135.7,286046993.4,P
1459376155.5,286046994.2,P
1459376175.3,286046996.1,P
1459376195.2,286046995.7,Y
1459376215.9,286047004.1,P
1459376235.7,286047003.1,N
1459376255.5,286047006.4,N
1459376275.4,286047004.6,N
1459376295.2,286047006.4,N
1459376315.0,286047007.9,N
1459376315.9,286047007.9,N
1459376335.8,286047010.8,N
1459376355.6,286047009.8,N
1459376375.4,286047010.4,N
1459376395.3,286047006.4,N
1459376415.1,286047006.4,N
1459376416.0,286047006.4,N
1459376435.8,286047008.6,N
1459376455.7,286047008.2,N
1459376475.5,286047008.1,N
1459376495.3,286047010.2,N
1459376515.2,286047006.2,N
1459376535.9,286047008.6,N
1459376555.7,286047006.6,N
1459376575.5,286047005.9,N
1459376595.4,286047004.6,N
1459376615.2,286047004.2,N
1459376635.0,286047005.6,N
1459376635.9,286047005.6,N
1459376655.8,286047004.7,N
1459376675.6,286047003.2,N
1459376695.4,286047001.7,N
1459376715.3,286047002.6,N
1459376735.1,286047003.3,N
1459376755.8,286047005.6,N
1459376775.7,286047005.3,N
1459376795.5,286047003.9,N
1459376815.3,286047000.5,N
1459376835.2,286047000.9,N
1459376855.9,286046999.6,N
1459376875.7,286047001.1,N
1459376895.6,286046999.4,N
1459376915.4,286046996.6,N
1459376935.2,286046997.8,N
1459376955.0,286046997.1,N
1459376956.0,286046997.1,N
1459376975.8,286046995.6,N
1459376995.6,286046995.3,N
1459377015.4,286046995.0,N
1459377035.3,286046995.7,N
1459377055.1,286046992.1,N
1459377075.8,286046993.6,N
1459377095.7,286046994.2,N
1459377115.5,286046993.8,N
1459377135.3,286046991.7,N
1459377155.2,286046992.2,N
1459377175.9,286046993.3,N
1459377195.7,286046994.9,N
1459377215.6,286046995.5,N
1459377235.4,286046993.4,N
1459377255.2,286046994.7,N
1459377275.1,286046991.6,N
1459377276.0,286046991.6,N
1459377295.8,286046993.0,N
1459377315.6,286046992.8,N
1459377335.4,286046990.1,N
1459377355.3,286046994.6,N
1459377375.1,286046995.8,N
1459377395.8,286046995.2,N
1459377415.7,286046991.9,Y
1459377435.5,286047001.2,P
1459377455.3,286046998.6,N
1459377475.2,286046998.8,N
1459377495.0,286047000.5,N
1459377495.9,286047000.5,N
1459377515.7,286046999.1,N
1459377535.6,286046994.9,N
1459377555.4,286046996.7,N
1459377575.2,286046999.2,N
1459377595.1,286046997.7,N
1459377596.0,286046997.7,N
1459377615.8,286046996.8,N
1459377635.6,286046997.0,N
1459377655.5,286046996.6,N
1459377675.3,286046998.8,N
1459377695.1,286046999.0,N
1459377715.8,286046997.5,N
1459377735.7,286046996.6,N
1459377755.5,286046996.5,N
1459377775.3,286046996.7,N
1459377795.2,286046997.7,N
1459377815.0,286046997.8,N
1459377815.9,286046997.8,N
1459377835.7,286046995.3,N
1459377855.6,286046995.4,N
1459377875.4,286047000.6,N
1459377895.2,286047002.1,N
1459377915.1,286047002.1,N
1459377916.0,286047002.1,N
1459377935.8,286047001.6,N
1459377955.6,286046999.7,N
1459377975.5,286046998.6,N
1459377995.3,286046999.3,N
1459378015.1,286047000.7,N
1459378035.9,286047002.8,N
1459378055.7,286047002.6,N
1459378075.5,286047002.6,N
1459378095.3,286047005.9,N
1459378115.2,286047005.5,N
1459378135.0,286047006.9,N
1459378135.9,286047006.9,N
1459378155.7,286047005.4,N
1459378175.6,286047001.3,N
1459378195.4,286047002.4,N
1459378215.2,286047000.0,N
1459378235.1,286047000.9,N
1459378236.0,286047000.9,N
1459378255.8,286046999.2,N
1459378275.6,286046999.1,N
1459378295.5,286046997.0,N
1459378315.3,286046998.0,N
1459378335.1,286046998.0,N
1459378355.9,286046995.7,N
1459378375.7,286046994.2,N
1459378395.5,286046993.7,N
1459378415.4,286046993.2,N
1459378435.2,286046988.5,Y
1459378455.0,286046991.0,P
1459378455.9,286046991.0,N
1459378475.8,286046990.6,N
1459378495.6,286046991.4,N
1459378515.4,286046987.6,Y
1459378535.3,286046997.9,P
1459378555.1,286046994.6,N
1459378556.0,286046994.6,N
1459378575.8,286046993.1,Y
1459378595.7,286046995.7,P
1459378615.5,286046999.2,N
1459378635.3,286046997.5,N
1459378655.2,286046996.1,N
1459378675.9,286046991.7,Y
1459378695.7,286046996.0,P
1459378715.6,286046995.2,P
1459378735.4,286046995.0,P
1459378755.2,286046994.6,Y
1459378775.1,286046998.7,P
1459378776.0,286046998.7,N
1459378795.8,286047001.0,N
